GW5243 Weather Reports


Display with metric or nautical units.
time (UTC)temp
F
wind
direction
speed
MPH
gust
MPH
rain 1hr
in
rain 24hr
in
rain mn
in
humidity
%
barometer
mb
20260903161520 65 348 1.0 2.0 0.00 0.03 0.03 90 1013.9
20260903160030 64 140 0.0 2.0 0.00 0.03 0.03 91 1014.0
20260903154506 63 123 0.0 2.0 0.00 0.03 0.03 92 1014.0
20260903153012 63 5 0.0 2.0 0.00 0.03 0.03 93 1014.3
20260903151517 63 90 0.0 2.0 0.00 0.03 0.03 92 1014.4
20260903150026 63 94 0.0 2.0 0.00 0.03 0.03 92 1014.4
20260903144504 63 54 1.0 3.0 0.00 0.03 0.03 92 1014.4
20260903143008 63 84 0.0 2.0 0.00 0.03 0.03 92 1014.5
20260903141513 63 75 0.0 2.0 0.00 0.03 0.03 93 1014.5
20260903140036 63 69 0.0 2.0 0.00 0.03 0.03 94 1014.5
20260903134504 63 95 0.0 2.0 0.00 0.03 0.03 93 1014.4
20260903133008 62 17 0.0 2.0 0.00 0.03 0.03 93 1014.4
20260903131512 62 327 0.0 2.0 0.00 0.03 0.03 95 1014.4
20260903130019 61 327 0.0 2.0 0.00 0.03 0.03 96 1014.6
20260903124530 61 327 0.0 2.0 0.00 0.03 0.03 96 1014.6
20260903123011 61 327 0.0 1.0 0.00 0.03 0.03 96 1014.6
20260903121512 60 51 0.0 2.0 0.00 0.03 0.03 97 1014.7
20260903120015 60 51 0.0 2.0 0.00 0.03 0.03 97 1014.9
20260903114523 59 51 0.0 1.0 0.00 0.03 0.03 97 1014.9
20260903113030 59 51 0.0 2.0 0.00 0.03 0.03 96 1015.0
20260903111512 59 51 0.0 2.0 0.00 0.03 0.03 96 1015.1
20260903110014 59 51 0.0 2.0 0.00 0.03 0.03 96 1015.1
20260903104518 59 51 0.0 2.0 0.00 0.03 0.03 96 1015.0
20260903103027 59 51 0.0 2.0 0.00 0.03 0.03 96 1014.9
20260903101529 59 51 0.0 2.0 0.00 0.03 0.03 96 1015.1
20260903100012 59 309 0.0 0.0 0.00 0.03 0.03 96 1015.0
20260903094520 59 309 0.0 2.0 0.00 0.03 0.03 96 1015.1
20260903093026 59 309 0.0 2.0 0.00 0.03 0.03 96 1015.1
20260903091527 59 309 0.0 2.0 0.00 0.03 0.03 96 1015.1
20260903090040 59 16 0.0 2.0 0.00 0.03 0.03 96 1015.4
20260903084512 59 5 0.0 0.0 0.00 0.03 0.03 96 1015.5
20260903083021 59 5 0.0 0.0 0.00 0.03 0.03 96 1015.6
20260903081526 59 5 0.0 0.0 0.00 0.03 0.03 96 1015.6
20260903080030 59 352 0.0 0.0 0.00 0.03 0.03 95 1015.7
20260903074533 59 352 0.0 2.0 0.00 0.03 0.03 95 1015.8
20260903073019 59 352 0.0 2.0 0.00 0.03 0.03 95 1015.9
20260903071524 59 321 0.0 2.0 0.01 0.03 0.03 95 1015.9
20260903070029 59 330 0.0 2.0 0.02 0.03 0.03 95 1016.1
20260903064531 59 9 0.0 2.0 0.03 0.03 0.03 94 1015.8
20260903063044 59 14 0.0 2.0 0.03 0.03 0.03 93 1016.1
20260903061518 60 292 0.0 2.0 0.02 0.02 0.02 92 1016.2
20260903060104 61 145 0.0 2.0 0.01 0.01 0.01 90 1016.4
20260903054534 61 360 0.0 2.0 0.00 0.00 0.00 89 1016.9
20260903053029 61 360 0.0 2.0 0.00 0.00 0.00 89 1016.9
20260903051535 61 360 0.0 2.0 0.00 0.00 0.00 88 1017.4
20260903050025 61 50 0.0 2.0 0.00 0.00 0.00 87 1017.5
20260903044525 61 348 0.0 2.0 0.00 0.00 0.00 87 1017.6
20260903043032 62 330 0.0 2.0 0.00 0.01 0.00 86 1017.4
20260903041533 62 332 0.0 2.0 0.00 0.01 0.00 86 1017.4
20260903040051 62 107 0.0 2.0 0.00 0.01 0.00 85 1017.6
20260903034529 62 9 0.0 1.0 0.00 0.01 0.01 86 1017.6
20260903033033 62 33 0.0 2.0 0.00 0.01 0.01 85 1018.0
20260903031534 63 85 0.0 2.0 0.00 0.01 0.01 83 1018.3
20260903030032 63 75 0.0 4.0 0.00 0.01 0.01 83 1018.5
20260903024523 62 196 0.0 3.0 0.00 0.01 0.01 83 1018.5
20260903023045 62 153 0.0 3.0 0.00 0.01 0.01 85 1018.4
20260903021531 63 46 0.0 2.0 0.00 0.01 0.01 83 1018.5
20260903020015 63 263 0.0 3.0 0.00 0.01 0.01 82 1018.7
20260903014522 63 188 1.0 2.0 0.00 0.01 0.01 81 1018.9
20260903013027 63 227 1.0 6.0 0.00 0.02 0.01 81 1019.0
20260903011506 63 284 1.0 8.0 0.00 0.04 0.01 81 1018.8
20260903010034 63 271 0.0 2.0 0.00 0.04 0.01 83 1018.9
20260903004518 64 310 2.0 3.0 0.00 0.04 0.01 82 1018.6
20260903003024 63 118 1.0 6.0 0.00 0.04 0.01 84 1018.4
20260903001531 63 259 1.0 3.0 0.00 0.04 0.01 86 1018.1
20260903000010 63 238 0.0 2.0 0.00 0.04 0.01 90 1018.3
20260902234523 63 281 0.0 2.0 0.00 0.04 0.01 91 1018.3
20260902233019 63 267 0.0 2.0 0.00 0.04 0.01 90 1018.6
20260902231537 64 290 0.0 2.0 0.00 0.04 0.01 90 1019.2
20260902230031 64 248 0.0 2.0 0.00 0.04 0.01 89 1019.6
20260902224512 64 274 0.0 1.0 0.00 0.04 0.01 89 1020.0
20260902223018 64 274 0.0 2.0 0.00 0.04 0.01 89 1020.1
20260902221528 64 250 0.0 2.0 0.00 0.04 0.01 88 1020.3
20260902220035 65 232 0.0 2.0 0.00 0.04 0.01 89 1020.1
20260902214535 65 53 0.0 2.0 0.00 0.04 0.01 88 1020.0
20260902213014 65 53 0.0 1.0 0.00 0.04 0.01 87 1020.1
20260902211527 66 53 0.0 2.0 0.00 0.04 0.01 86 1020.1
20260902210027 66 93 0.0 2.0 0.00 0.04 0.01 85 1020.3
20260902204530 66 331 0.0 3.0 0.00 0.04 0.01 85 1020.4
20260902203029 67 105 0.0 2.0 0.00 0.04 0.01 84 1020.4
20260902201531 67 73 0.0 2.0 0.00 0.04 0.01 83 1020.4
20260902200024 68 145 2.0 6.0 0.00 0.04 0.01 78 1020.2
20260902194532 69 174 1.0 2.0 0.00 0.04 0.01 81 1020.4
20260902193032 68 334 1.0 3.0 0.00 0.04 0.01 80 1020.6
20260902191534 67 140 0.0 3.0 0.00 0.04 0.01 80 1021.0
20260902190021 67 169 0.0 2.0 0.00 0.04 0.01 83 1020.9
20260902184530 66 220 0.0 2.0 0.00 0.04 0.01 82 1021.4
20260902183030 67 182 1.0 4.0 0.00 0.04 0.01 83 1021.4
20260902181534 67 140 0.0 2.0 0.00 0.04 0.01 81 1021.2
20260902180017 67 360 0.0 2.0 0.00 0.04 0.01 83 1021.2
20260902174529 66 96 0.0 4.0 0.00 0.04 0.01 82 1021.3
20260902173034 65 138 0.0 2.0 0.00 0.04 0.01 83 1021.2
20260902171530 65 317 1.0 4.0 0.00 0.04 0.01 81 1021.6
20260902170019 66 172 1.0 8.0 0.00 0.04 0.01 79 1021.7
20260902164527 68 308 0.0 2.0 0.00 0.04 0.01 79 1021.6
20260902163003 68 13 0.0 2.0 0.00 0.04 0.01 78 1021.3